Flag for Germany Weather past 2 weeks in Landshut, Bavaria, Germany

Now
60 °F

Overcast.


Feels Like: 60 °F
Forecast: 50 / 61 °F
Wind: 2 mph from Northeast

Location: Muenchen Flughafen

Current Time: May 23, 2015 at 3:28:11 PM

Latest Report: May 23, 2015 at 3:00 PM


Visibility: 25 mi

Pressure: 30.02 "Hg

Humidity: 49%

Dew point: 41 °F

Location of LandshutLocation

Historic Weather in Landshut — Graph

°F

Landshut temperature yesterday

Maximum temperature yesterday: 60 °F (at 5:00 PM)
Minimum temperature yesterday: 43 °F (at 6:00 AM)
Average temperature yesterday: 52 °F

Past Weeks' High & Low Weather Summary

 TemperatureHumidityPressure
High80 °F (May 12, 4:00 PM)100% (May 16, 2:00 AM)30.39 "Hg (May 16, 2:00 AM)
Low42 °F (May 11, 5:00 AM)31% (May 12, 5:00 PM)29.69 "Hg (May 18, 8:00 PM)
Average57 °F76%30.08 "Hg
* Reported May 8 2:00 PM — May 23 2:00 PM, Landshut, Weather by CustomWeather, © 2015

Note: Actual official high and low records may vary slightly from our data, if they occured in-between our weather recording intervals... More about our weather records

Advertising

Landshut weather history for previous 24 hours

 ConditionsComfort  
Time TempWeatherWind HumidityBarometerVisibility
2:00 PM
Sat, May 23
59 °FOvercast.1 mph56%30.04 "Hg22 mi
1:00 PM57 °FOvercast.1 mph55%30.06 "Hg19 mi
12:00 PM57 °FOvercast.2 mph65%30.07 "Hg16 mi
11:00 AM55 °FOvercast.1 mph74%30.09 "Hg12 mi
10:00 AM53 °FOvercast.1 mph77%30.10 "Hg9 mi
9:00 AM52 °FOvercast.1 mph84%30.11 "Hg8 mi
8:00 AM51 °FOvercast.1 mph80%30.11 "Hg7 mi
7:00 AM49 °FOvercast.1 mph84%30.11 "Hg7 mi
5:00 AM47 °FOvercast.1 mph93%30.12 "Hg5 mi
4:00 AM46 °FOvercast.1 mph93%30.15 "Hg7 mi
3:00 AM46 °FOvercast.1 mph91%30.16 "Hg9 mi
2:00 AM46 °FOvercast.2 mph94%30.17 "Hg11 mi
1:00 AM49 °FOvercast.2 mph86%30.17 "Hg11 mi
12:00 AM51 °FOvercast.2 mph87%30.18 "Hg9 mi
11:00 PM
Fri, May 22
52 °FOvercast.2 mph85%30.18 "Hg14 mi
10:00 PM52 °FOvercast.2 mph88%30.19 "Hg14 mi
9:00 PM53 °FOvercast.3 mph83%30.18 "Hg16 mi
8:00 PM55 °FOvercast.2 mph75%30.17 "Hg16 mi
7:00 PM55 °FOvercast.6 mph75%30.18 "Hg19 mi
6:00 PM58 °FOvercast.3 mph46%30.17 "Hg19 mi
5:00 PM60 °FRefreshingly cool.3 mph46%30.17 "Hg31 mi
4:00 PM58 °FOvercast.3 mph52%30.20 "Hg19 mi
3:00 PM59 °FOvercast.3 mph50%30.21 "Hg19 mi
Weather by CustomWeather, © 2015

See weather overviewHow to use our weather pages